GTYEY EDDG-EDLV

Flight info

Callsign GTYEY
Flight time 0h 45m
Altitude 300
Route VFR
Aircraft C172/L-V/N

Departure

Time 2026-05-04 08:29
Airport Münster Osnabrück Airport (EDDG)

Arrival

Time 2026-05-04 09:15
Airport Weeze (Niederrhein) Airport (EDLV)
Time Latitude Longitude Altitude Speed Heading
2026-05-04 08:13 52.13157 7.68233 161 ft 0 kts 271°
2026-05-04 08:24 52.13280 7.68438 161 ft 11 kts 70°
2026-05-04 08:24 52.13308 7.68573 161 ft 13 kts 71°
2026-05-04 08:24 52.13340 7.68729 160 ft 15 kts 70°
2026-05-04 08:24 52.13377 7.68899 160 ft 16 kts 72°
2026-05-04 08:25 52.13415 7.69078 161 ft 17 kts 70°
2026-05-04 08:25 52.13452 7.69264 161 ft 17 kts 69°
2026-05-04 08:25 52.13504 7.69505 161 ft 17 kts 70°
2026-05-04 08:25 52.13530 7.69627 160 ft 17 kts 70°
2026-05-04 08:26 52.13569 7.69812 160 ft 17 kts 71°
2026-05-04 08:27 52.13739 7.69787 161 ft 25 kts 251°
2026-05-04 08:28 52.13652 7.69368 161 ft 56 kts 251°
2026-05-04 08:28 52.13513 7.68703 270 ft 63 kts 253°
2026-05-04 08:28 52.13358 7.68017 421 ft 62 kts 243°
2026-05-04 08:28 52.13178 7.67388 552 ft 63 kts 240°
2026-05-04 08:29 52.12924 7.66774 669 ft 67 kts 214°
2026-05-04 08:29 52.12489 7.66275 703 ft 83 kts 211°
2026-05-04 08:29 52.11990 7.65847 870 ft 80 kts 201°
2026-05-04 08:31 52.07949 7.63165 1454 ft 103 kts 203°
2026-05-04 08:33 52.03438 7.59787 1452 ft 100 kts 217°
2026-05-04 08:33 52.02942 7.59020 1454 ft 100 kts 229°
2026-05-04 08:35 52.00733 7.52022 1383 ft 97 kts 246°
2026-05-04 08:35 52.00441 7.51057 1255 ft 95 kts 246°
2026-05-04 08:35 52.00156 7.50101 1186 ft 89 kts 244°
2026-05-04 08:35 51.99902 7.49219 1196 ft 84 kts 245°
2026-05-04 08:37 51.98600 7.44364 1203 ft 79 kts 254°
2026-05-04 08:37 51.98514 7.43481 1203 ft 80 kts 264°
2026-05-04 08:37 51.98463 7.42579 1203 ft 81 kts 265°
2026-05-04 08:38 51.98410 7.41658 1203 ft 81 kts 265°
2026-05-04 08:38 51.98402 7.40746 1202 ft 83 kts 270°
2026-05-04 08:38 51.98412 7.39757 1206 ft 91 kts 269°
2026-05-04 08:40 51.97400 7.31930 1187 ft 103 kts 253°
2026-05-04 08:40 51.97208 7.30812 1187 ft 102 kts 253°
2026-05-04 08:40 51.97017 7.29709 1188 ft 102 kts 253°
2026-05-04 08:41 51.96758 7.28240 1188 ft 101 kts 253°
2026-05-04 08:41 51.96629 7.27514 1189 ft 101 kts 253°
2026-05-04 08:41 51.96419 7.26409 1189 ft 102 kts 251°
2026-05-04 08:41 51.96202 7.25321 1188 ft 102 kts 251°
2026-05-04 08:42 51.95981 7.24207 1187 ft 102 kts 251°
2026-05-04 08:42 51.95743 7.23118 1188 ft 102 kts 248°
2026-05-04 08:42 51.95488 7.22027 1261 ft 103 kts 247°
2026-05-04 08:42 51.95234 7.20941 1331 ft 104 kts 247°
2026-05-04 08:43 51.94977 7.19830 1404 ft 104 kts 247°
2026-05-04 08:43 51.94720 7.18722 1472 ft 105 kts 247°
2026-05-04 08:43 51.94464 7.17614 1458 ft 106 kts 248°
2026-05-04 08:43 51.94202 7.16482 1456 ft 106 kts 248°
2026-05-04 08:44 51.93946 7.15372 1455 ft 104 kts 248°
2026-05-04 08:44 51.93695 7.14280 1455 ft 103 kts 248°
2026-05-04 08:46 51.91913 7.06667 1455 ft 102 kts 247°
2026-05-04 08:46 51.91611 7.05630 1455 ft 102 kts 241°
2026-05-04 08:46 51.91290 7.04612 1455 ft 102 kts 241°
2026-05-04 08:46 51.90963 7.03580 1455 ft 101 kts 241°
2026-05-04 08:47 51.90641 7.02557 1455 ft 101 kts 241°
2026-05-04 08:47 51.90325 7.01549 1455 ft 101 kts 241°
2026-05-04 08:47 51.89895 7.00189 1454 ft 102 kts 241°
2026-05-04 08:47 51.89677 6.99500 1455 ft 102 kts 241°
2026-05-04 08:48 51.89352 6.98482 1455 ft 102 kts 241°
2026-05-04 08:48 51.89025 6.97454 1454 ft 102 kts 241°
2026-05-04 08:48 51.88703 6.96433 1456 ft 102 kts 241°
2026-05-04 08:48 51.88379 6.95389 1456 ft 103 kts 241°
2026-05-04 08:49 51.88059 6.94354 1457 ft 103 kts 242°
2026-05-04 08:50 51.86169 6.88146 1456 ft 101 kts 242°
2026-05-04 08:50 51.85860 6.87125 1456 ft 101 kts 242°
2026-05-04 08:51 51.85548 6.86091 1455 ft 101 kts 242°
2026-05-04 08:51 51.85238 6.85063 1456 ft 101 kts 242°
2026-05-04 08:51 51.84925 6.84035 1456 ft 102 kts 242°
2026-05-04 08:51 51.84613 6.83013 1455 ft 102 kts 242°
2026-05-04 08:52 51.84298 6.81980 1455 ft 102 kts 242°
2026-05-04 08:52 51.83980 6.80936 1455 ft 102 kts 242°
2026-05-04 08:52 51.83669 6.79907 1456 ft 102 kts 242°
2026-05-04 08:52 51.83356 6.78869 1457 ft 102 kts 242°
2026-05-04 08:53 51.83049 6.77838 1456 ft 101 kts 242°
2026-05-04 08:54 51.80921 6.70647 1457 ft 102 kts 242°
2026-05-04 08:55 51.80609 6.69607 1458 ft 102 kts 242°
2026-05-04 08:55 51.80299 6.68578 1456 ft 103 kts 243°
2026-05-04 08:55 51.79986 6.67542 1457 ft 103 kts 242°
2026-05-04 08:55 51.79669 6.66492 1456 ft 102 kts 242°
2026-05-04 08:57 51.77527 6.59277 1456 ft 101 kts 240°
2026-05-04 09:01 51.72920 6.45192 1455 ft 100 kts 240°
2026-05-04 09:01 51.72600 6.44187 1457 ft 100 kts 240°
2026-05-04 09:01 51.72301 6.43169 1461 ft 100 kts 243°
2026-05-04 09:01 51.72013 6.42155 1465 ft 100 kts 243°
2026-05-04 09:02 51.71716 6.41119 1471 ft 100 kts 243°
2026-05-04 09:02 51.71425 6.40096 1473 ft 100 kts 243°
2026-05-04 09:02 51.71132 6.39063 1474 ft 100 kts 243°
2026-05-04 09:02 51.70847 6.38048 1472 ft 98 kts 244°
2026-05-04 09:03 51.70571 6.37057 1471 ft 96 kts 244°
2026-05-04 09:03 51.70301 6.36080 1472 ft 94 kts 244°
2026-05-04 09:03 51.70036 6.35120 1472 ft 93 kts 244°
2026-05-04 09:03 51.69770 6.34167 1474 ft 92 kts 243°
2026-05-04 09:04 51.69508 6.33222 1474 ft 92 kts 243°
2026-05-04 09:04 51.69250 6.32284 1474 ft 91 kts 243°
2026-05-04 09:04 51.68990 6.31345 1475 ft 91 kts 243°
2026-05-04 09:04 51.68741 6.30405 1475 ft 91 kts 244°
2026-05-04 09:05 51.68493 6.29452 1474 ft 91 kts 244°
2026-05-04 09:05 51.68250 6.28508 1472 ft 91 kts 245°
2026-05-04 09:05 51.68032 6.27553 1472 ft 91 kts 247°
2026-05-04 09:05 51.67883 6.26551 1470 ft 91 kts 262°
2026-05-04 09:06 51.67873 6.25531 1471 ft 91 kts 269°
2026-05-04 09:07 51.66634 6.18622 1467 ft 96 kts 214°
2026-05-04 09:08 51.66034 6.18183 1466 ft 94 kts 188°
2026-05-04 09:08 51.65382 6.18148 1465 ft 93 kts 169°
2026-05-04 09:08 51.64743 6.18329 1462 ft 93 kts 167°
2026-05-04 09:08 51.64098 6.18514 1459 ft 94 kts 172°
2026-05-04 09:09 51.63439 6.18442 1460 ft 94 kts 186°
2026-05-04 09:09 51.62832 6.18264 1439 ft 87 kts 188°
2026-05-04 09:09 51.62190 6.18067 1221 ft 100 kts 188°
2026-05-04 09:09 51.61479 6.17830 998 ft 107 kts 188°
2026-05-04 09:10 51.60768 6.17600 928 ft 96 kts 188°
2026-05-04 09:10 51.60141 6.17350 876 ft 91 kts 188°
2026-05-04 09:10 51.59561 6.17306 811 ft 79 kts 171°
2026-05-04 09:10 51.59015 6.17434 649 ft 79 kts 166°
2026-05-04 09:11 51.58569 6.17813 561 ft 69 kts 125°
2026-05-04 09:11 51.58364 6.18463 519 ft 60 kts 104°
2026-05-04 09:11 51.58285 6.19116 479 ft 58 kts 97°
2026-05-04 09:11 51.58242 6.19793 484 ft 61 kts 89°
2026-05-04 09:12 51.58239 6.20507 493 ft 66 kts 86°
2026-05-04 09:12 51.58281 6.21258 529 ft 65 kts 72°
2026-05-04 09:14 51.60155 6.18285 523 ft 72 kts 270°
2026-05-04 09:14 51.60174 6.17464 423 ft 75 kts 269°
2026-05-04 09:14 51.60195 6.16629 284 ft 74 kts 270°
2026-05-04 09:14 51.60212 6.15803 150 ft 70 kts 267°
2026-05-04 09:15 51.60225 6.15110 105 ft 52 kts 271°
2026-05-04 09:15 51.60239 6.14614 101 ft 39 kts 270°
2026-05-04 09:15 51.60248 6.14200 96 ft 36 kts 271°
2026-05-04 09:15 51.60257 6.13794 92 ft 34 kts 270°
2026-05-04 09:17 51.60109 6.12951 93 ft 3 kts 180°
2026-05-04 09:18 51.60081 6.13005 93 ft 10 kts 91°
2026-05-04 09:18 51.60077 6.13150 92 ft 14 kts 92°
2026-05-04 09:18 51.60074 6.13321 92 ft 16 kts 92°
2026-05-04 09:18 51.60069 6.13510 92 ft 17 kts 91°
2026-05-04 09:19 51.60066 6.13697 92 ft 15 kts 92°
2026-05-04 09:19 51.60061 6.13864 92 ft 14 kts 91°
2026-05-04 09:19 51.60057 6.14031 93 ft 15 kts 90°
2026-05-04 09:19 51.60054 6.14203 96 ft 16 kts 93°
2026-05-04 09:20 51.60050 6.14384 100 ft 15 kts 92°
2026-05-04 09:20 51.60047 6.14537 101 ft 8 kts 92°
2026-05-04 09:20 51.60016 6.14586 102 ft 5 kts 184°
2026-05-04 09:20 51.59996 6.14604 102 ft 3 kts 104°
2026-05-04 09:21 51.59995 6.14609 102 ft 0 kts 95°
2026-05-04 09:21 51.59998 6.14631 102 ft 3 kts 71°
2026-05-04 09:21 51.59999 6.14658 102 ft 0 kts 94°